Terminal Aerodrome Forecast
Issued by NWS

Home | Current Version | Previous Version | Text Only | Print | Product List | Glossary On
Versions: 1 2 3 4 5 6 7 8 9 10 11 12 13 14 15 16
000
FTUS46 KPDT 231700
TAFRDM
TAF
KRDM 231733Z 2318/2418 22013G20KT P6SM VCSH BKN060 OVC080
     FM232200 27016G24KT P6SM -SHRA BKN050 OVC070
     FM240300 24011KT P6SM -SHRA BKN050 OVC070
     FM240900 18011KT P6SM VCSH BKN060 BKN080
     FM241200 16012KT P6SM -SHRA BKN050 OVC070
     FM241700 21008KT P6SM VCSH BKN070=

USA.gov is the U.S. government's official web portal to all federal, state and local government web resources and services.